Location: ???????
(55.6299°N, 38.7304°E)
Time: 08:45:24
(UTC+00:00)

Daily predictions for brighter satellites

Satellite Brightness Start Highest point End
(mag) Time Altitude Azimuth Time Altitude Azimuth Time Altitude Azimuth
COSMOS 2406 3.8 14:36:35 10° NW 14:42:20 68° WSW 14:48:02 10° SSE
Cosmos 2228 3.1 14:40:22 10° S 14:44:38 58° E 14:48:54 10° NNE
Unknown 4.0 14:40:56 10° WSW 14:45:00 56° S 14:49:04 10° E
Envisat 3.1 14:40:02 10° SE 14:45:00 57° ENE 14:50:00 10° N
Unknown 4.0 14:42:36 10° WSW 14:46:40 57° S 14:50:45 10° E
Cosmos 1898 Rocket 4.3 14:42:27 10° NNW 14:47:10 31° NE 14:51:53 10° ESE
Unknown 4.0 14:45:57 10° WSW 14:50:01 57° S 14:54:06 10° E
SWAS 4.5 14:46:02 10° SSW 14:50:18 66° ESE 14:54:35 10° NE
Cosmos 304 Rocket 4.4 14:45:53 10° SW 14:50:38 59° WNW 14:55:25 10° NNE
Unknown 4.0 14:46:44 10° WSW 14:50:46 59° S 14:54:48 10° E
Cosmos 921 Rocket 3.2 14:46:32 10° S 14:50:56 59° ESE 14:55:18 10° NNE
Unknown 4.0 14:46:54 10° WSW 14:50:59 58° S 14:55:04 10° E
ATLAS 5 CENTAUR R/B 1.9 14:46:37 10° WSW 14:51:05 79° NW 14:56:16 10° NE
YAOGAN 1 3.1 14:47:17 10° SE 14:51:15 36° ENE 14:55:15 10° N
Unknown 4.0 14:47:39 10° WSW 14:51:44 59° S 14:55:49 10° E
Unknown 4.0 14:49:25 10° WSW 14:53:31 59° S 14:57:36 10° E
Cosmos 292 Rocket 4.1 14:49:36 10° S 14:54:05 44° ESE 14:58:37 10° NE
H-2A R/B 3.8 14:51:24 10° E 14:54:26 15° NE 14:57:31 10° N
Cosmos 1703 3.2 14:51:05 10° N 14:55:02 70° ENE 14:58:56 10° SSE
Unknown 4.0 14:52:34 10° WSW 14:56:39 59° S 15:00:44 10° E
Cosmos 1726 Rocket 3.5 14:53:27 10° S 14:57:48 72° E 15:02:09 10° NNE
Unknown 4.0 14:55:53 10° WSW 14:59:57 59° S 15:03:59 10° E
Unknown 4.0 14:56:48 10° W 15:00:26 51° SSW 15:04:05 10° ESE
Unknown 4.0 14:57:30 10° WSW 15:01:35 59° S 15:05:34 11° E
Cosmos 1356 3.7 14:58:50 10° S 15:02:09 46° E 15:05:29 10° NNE
Unknown 3.9 14:59:11 10° WSW 15:03:16 60° S 15:07:10 11° E
Unknown 3.9 15:00:48 10° WSW 15:04:53 60° S 15:08:44 11° E
SMAP 4.0 15:00:53 10° S 15:05:26 54° W 15:10:02 10° NNW
Cosmos 1726 2.2 15:03:00 10° S 15:06:34 54° E 15:10:09 10° NNE
Meteor 1-16 Rocket 4.1 15:01:31 10° S 15:06:55 68° E 15:12:15 10° NNE
Cosmos 2278 Rocket 2.7 15:03:09 10° S 15:08:21 39° ESE 15:13:35 10° NE
Cosmos 1461 3.9 15:06:04 10° NW 15:09:59 48° SW 15:14:01 10° SSE
EO 1 Delta rocket 4.2 15:06:15 10° SE 15:10:48 51° ENE 15:16:08 10° N
Unknown 3.9 15:07:27 10° WSW 15:11:33 61° S 15:15:09 13° E
Unknown 3.9 15:09:08 10° WSW 15:13:14 61° S 15:16:46 14° E
Unknown 3.9 15:10:46 10° WSW 15:14:52 61° S 15:18:21 14° E
Cosmos 1908 3.4 15:12:06 10° S 15:15:51 48° E 15:19:36 10° NNE
Meteor 2-10 3.9 15:10:56 10° S 15:15:54 63° E 15:20:55 10° NNE
Meteor 1-11 4.4 15:10:10 10° NNW 15:15:59 88° WSW 15:21:48 10° S
Cosmos 1844 3.9 15:10:14 10° SW 15:16:00 83° NW 15:21:52 10° NE
CZ-4 R/B 1.4 15:12:06 10° SSE 15:16:18 70° ENE 15:20:32 10° NNW
Unknown 3.9 15:12:25 10° WSW 15:16:31 61° S 15:19:55 14° E
ATLAS CENTAUR R/B 2.8 15:13:19 10° NW 15:17:29 29° NNE 15:20:43 14° ENE
Unknown 3.9 15:14:04 10° WSW 15:18:09 61° S 15:21:30 15° E
CSL-04 Rocket 3.7 15:13:07 10° SSE 15:18:35 68° ENE 15:24:01 10° NNW
FengYun 1-2 T 4.2 15:14:56 10° SSE 15:20:34 84° ENE 15:26:11 10° NNW
Unknown 3.9 15:17:23 10° WSW 15:21:29 61° S 15:24:43 16° E
Abrixas rocket 4.1 15:19:39 10° SSW 15:21:42 17° SSE 15:23:22 12° SE
Starlink (trailer) 3.9 15:19:02 10° WSW 15:23:08 61° S 15:26:17 16° ESE
Cosmos 2263 Rocket 3.9 15:18:23 10° W 15:23:14 29° NNW 15:28:06 10° NNE
SJ 16-02 2.1 15:19:55 10° NNW 15:23:54 32° NE 15:27:00 15° ESE
Unknown 3.9 15:20:44 10° W 15:24:49 61° S 15:27:55 17° ESE
Cosmos 2084 Rocket 3.9 15:21:34 10° NW 15:25:59 64° SW 15:30:19 10° SE
Cosmos 2058 Rocket 3.0 15:21:50 10° S 15:26:12 89° E 15:30:36 10° NNE
ARGOS 4.4 15:23:29 15° E 15:26:20 22° NE 15:30:24 10° N
Unknown 3.9 15:22:23 10° W 15:26:29 61° S 15:29:31 17° ESE
Ariane Rocket 3.3 15:22:53 10° SE 15:27:44 44° ENE 15:32:35 10° N
SJ-6B 4.3 15:30:50 17° ENE 15:31:13 17° ENE 15:33:42 10° NNE
Unknown 3.9 15:27:23 10° W 15:31:28 61° S 15:34:20 19° ESE
Unknown 3.9 15:29:00 10° W 15:33:07 61° S 15:35:53 19° ESE
Cosmos 1953 3.9 15:29:17 10° SW 15:33:07 39° WNW 15:36:58 10° N
Cosmos 1833 Rocket 3.4 15:28:27 10° NW 15:33:58 57° WSW 15:39:28 10° SSE
COSMO-SKYMED 1 2.6 15:30:07 10° NNE 15:34:26 58° E 15:38:43 10° S
YAOGAN 6 2.6 15:30:56 10° SSE 15:34:34 83° WSW 15:38:11 10° NNW
Cosmos 1825 4.3 15:32:54 10° NNE 15:33:52 12° NE 15:33:52 12° NE
Unknown 3.9 15:30:43 10° W 15:34:48 61° S 15:37:32 20° ESE
Cosmos 1459 Rocket 4.2 15:29:35 10° N 15:35:37 49° ENE 15:41:43 10° SE
Unknown 3.9 15:32:17 10° W 15:36:24 61° S 15:39:06 21° ESE
NOSS 3-2 (C) 4.5 15:32:07 10° SSE 15:36:41 24° ESE 15:39:31 18° ENE
Cosmos 990 Rocket 4.1 15:31:40 10° NNW 15:36:48 55° NE 15:41:56 10° SE
Cosmos 1937 Rocket 3.8 15:32:46 10° NNW 15:37:45 46° NE 15:41:50 15° ESE
Unknown 3.9 15:33:59 10° W 15:38:05 61° S 15:40:41 21° ESE
Unknown 4.1 15:34:27 10° W 15:38:08 48° SSW 15:40:45 18° SE
NOAA 11 4.2 15:32:56 10° SE 15:38:17 61° ENE 15:43:39 10° NNW
Cosmos 1339 Rocket 4.4 15:32:24 10° S 15:38:27 70° E 15:44:38 10° NNE
Unknown 3.9 15:35:45 10° W 15:39:50 61° S 15:42:23 22° ESE
Cosmos 1892 3.6 15:37:53 10° N 15:41:11 27° ENE 15:42:10 24° E
ASTEX 1 3.5 15:36:23 10° N 15:41:22 85° W 15:46:22 10° S
Cosmos 2061 Rocket 4.3 15:36:35 10° N 15:42:32 43° ENE 15:48:24 10° SE
Unknown 3.9 15:39:03 10° W 15:43:09 61° S 15:45:35 23° ESE
Unknown 3.9 15:39:05 10° W 15:43:10 61° S 15:45:35 23° ESE
Unknown 3.9 15:40:37 10° W 15:44:43 61° S 15:47:04 24° ESE
HJ-1C 3.9 15:43:51 23° ESE 15:45:26 38° ENE 15:48:35 10° N
Unknown 3.9 15:43:52 10° W 15:47:58 61° S 15:50:11 25° ESE
Cosmos 1605 Rocket 4.3 15:42:04 10° NNW 15:48:15 69° W 15:54:18 10° S
Cosmos 1766 Rocket 4.1 15:46:11 10° N 15:50:11 34° ENE 15:51:57 24° ESE
Unknown 3.9 15:47:15 10° W 15:51:21 60° S 15:53:28 27° ESE
Lacrosse 5 3.5 15:47:08 10° WNW 15:51:36 32° SW 15:56:03 10° SSE
CZ-2C R/B 4.4 15:51:02 22° E 15:52:53 25° NE 15:57:26 10° N
Unknown 3.9 15:48:56 10° W 15:53:01 60° S 15:55:04 27° ESE
Unknown 3.9 15:50:35 10° W 15:54:41 59° S 15:56:40 28° ESE
Cosmos 1076 Rocket 3.5 15:51:37 10° NNW 15:56:01 88° E 16:00:22 10° S
Unknown 3.9 15:52:16 10° W 15:56:22 59° S 15:58:17 29° ESE
Cosmos 2058 2.8 15:54:45 10° N 15:59:00 73° ENE 16:03:12 10° SSE
MOS 1 4.4 15:54:03 10° SE 15:59:33 56° ENE 16:05:05 10° NNW
Unknown 3.9 15:55:36 10° W 15:59:40 59° S 16:01:29 30° ESE
Cosmos 1408 Rocket 4.3 15:56:58 10° N 16:00:49 30° ENE 16:01:11 30° ENE
Unknown 3.9 15:57:18 10° W 16:01:23 58° S 16:03:08 31° ESE
ATLAS 3B R/B 3.5 15:56:37 10° SSE 16:01:56 26° ESE 16:02:54 25° E
Cosmos 2227 Rocket 4.1 15:58:16 10° NW 16:02:01 18° N 16:05:14 12° NE
Unknown 3.9 15:58:53 10° W 16:02:58 58° S 16:04:38 32° ESE
Unknown 4.2 15:59:24 10° W 16:03:07 44° SSW 16:04:49 27° SE
Okean 3 Rocket 3.7 15:59:01 10° N 16:03:31 56° ENE 16:06:47 18° SSE
Unknown 3.9 16:00:30 10° W 16:04:35 58° S 16:06:11 33° ESE
Cosmos 1300 2.7 16:01:03 10° S 16:04:47 55° E 16:08:33 10° NNE
Cosmos 2173 Rocket 3.9 15:58:54 10° N 16:05:13 73° ENE 16:11:23 10° SSE
Unknown 3.9 16:02:13 10° W 16:06:17 58° S 16:07:51 34° SE
Cosmos 2297 Rocket 4.1 16:03:02 10° NNW 16:06:48 18° N 16:09:43 13° NE
Cosmos 2082 Rocket 3.2 16:01:20 10° NW 16:06:50 48° WSW 16:12:15 10° S
Cosmos 1727 Rocket 3.9 16:00:55 10° S 16:07:04 77° E 16:13:16 10° NNE
Unknown 3.9 16:03:42 10° W 16:07:47 58° S 16:09:16 35° SE
CENTAUR R/B 3.3 16:03:34 10° S 16:08:43 28° ESE 16:09:44 27° E
Unknown 3.9 16:07:00 10° W 16:11:05 58° S 16:12:26 37° SE
IRS-1A Rocket 4.1 16:06:26 10° SSE 16:11:56 81° ENE 16:17:31 10° NNW
SJ-11-01 4.3 16:09:47 26° SE 16:12:16 54° ENE 16:16:51 10° N
Unknown 3.9 16:08:39 10° W 16:12:44 57° S 16:14:02 38° SE
CZ-2D R/B 3.5 16:09:37 10° S 16:13:28 70° WSW 16:17:23 10° NNW
Resurs 01 Rocket 3.1 16:14:37 22° NE 16:14:37 22° NE 16:17:26 10° N
SL-27 R/B 2.4 16:10:44 10° NNW 16:13:55 52° NE 16:13:55 52° NE
Unknown 3.9 16:10:31 10° W 16:14:36 56° S 16:15:50 38° SE
Cosmos 2084 4.5 16:10:35 10° W 16:14:52 43° NNW 16:17:18 22° NE
Cosmos 2151 3.0 16:10:45 10° N 16:15:01 57° ENE 16:16:37 35° SE
Unknown 3.9 16:12:01 10° W 16:16:05 56° S 16:17:16 40° SE
Cosmos 1802 Rocket 4.0 16:10:00 10° N 16:16:28 74° ENE 16:22:52 10° SSE
Cosmos 1812 Rocket 3.5 16:12:36 10° S 16:17:03 89° E 16:21:34 10° NNE
SPOT 3 Rocket 3.8 16:15:18 32° ESE 16:17:21 48° ENE 16:22:21 10° N
Unknown 3.9 16:13:39 10° W 16:17:43 56° S 16:18:50 41° SE
Cosmos 1844 Rocket 4.1 16:13:03 10° WSW 16:18:14 36° NW 16:23:25 10° NNE
Cosmos 1939 Rocket 3.1 16:14:23 10° S 16:18:24 71° WSW 16:22:31 10° NNW
Unknown 4.1 16:16:30 10° W 16:20:26 49° SSW 16:21:27 39° SSE
Unknown 3.9 16:17:00 10° W 16:21:03 55° S 16:22:03 43° SE
Cosmos 1408 3.9 16:18:03 10° N 16:20:17 27° NNE 16:20:17 27° NNE
SKYMED 2 4.2 16:18:15 10° N 16:22:32 56° WNW 16:26:47 10° SW
Unknown 4.0 16:18:36 10° W 16:22:40 55° S 16:23:36 44° SE
Cosmos 2123 Rocket 4.3 16:18:19 10° SSE 16:24:05 40° E 16:29:53 10° NNE
Unknown 4.0 16:20:18 10° W 16:24:21 55° S 16:25:13 45° SSE
Unknown 4.0 16:21:58 10° W 16:26:01 54° SSW 16:26:50 45° SSE
Cosmos 2233 Rocket 4.3 16:20:15 10° N 16:26:17 44° ENE 16:28:13 35° ESE
YAOGAN 1 4.2 16:23:23 10° SSW 16:27:23 36° W 16:31:25 10° NNW
Cosmos 1725 Rocket 4.0 16:22:21 10° N 16:28:38 64° ENE 16:32:48 22° SSE
Unknown 4.0 16:25:19 10° W 16:29:23 53° SSW 16:30:04 47° SSE
In-Cosmos 22 Rocket 4.2 16:23:59 10° NNW 16:29:24 78° WSW 16:34:54 10° S
Cosmos 1898 Rocket 3.8 16:24:26 10° NNW 16:29:41 66° WSW 16:34:20 13° SSE
Unknown 4.0 16:25:57 10° W 16:29:55 50° SSW 16:30:35 45° SSE
FREGAT/IRIS 4.4 16:31:35 23° N 16:31:35 23° N 16:32:48 10° NNW
Unknown 4.0 16:26:17 10° W 16:30:20 52° SSW 16:30:59 46° SSE
Cosmos 44 3.8 16:25:57 10° SSW 16:29:54 39° SE 16:29:54 39° SE
Cosmos 1000 Rocket 4.4 16:24:49 10° S 16:30:57 67° E 16:37:12 10° NNE
Unknown 4.0 16:27:03 10° W 16:31:05 51° SSW 16:31:44 46° SSE
H-2A R/B 2.2 16:31:12 40° ESE 16:32:49 55° ENE 16:38:09 10° N
Unknown 4.0 16:28:49 10° W 16:32:51 51° SSW 16:33:27 46° SSE
Cosmos 2100 Rocket 4.2 16:28:00 10° NNW 16:34:11 73° W 16:40:18 10° S
Unknown 4.0 16:31:58 10° W 16:36:00 51° SSW 16:36:27 49° S
ATLAS 5 CENTAUR R/B 3.0 16:31:56 10° W 16:36:23 38° N 16:38:54 24° NE
Meteor 2-1 Rocket 4.0 16:32:01 10° S 16:37:31 73° E 16:43:09 10° NNE
USA 238 DEB 3.6 16:31:00 10° SW 16:37:44 73° SE 16:41:58 26° NE
USA 238 3.6 16:31:07 10° SW 16:37:50 73° SE 16:42:01 26° NE
Unknown 4.0 16:35:17 10° W 16:39:18 50° SSW 16:39:38 49° S
Unknown 4.0 16:36:55 10° W 16:40:56 50° SSW 16:41:13 49° S
Unknown 4.0 16:38:36 10° W 16:42:37 49° SSW 16:42:49 49° S
USA 116 4.4 16:40:37 10° N 16:43:39 43° WNW 16:46:53 10° SW
Unknown 4.1 16:40:13 10° W 16:44:14 49° SSW 16:44:23 49° S
Cosmos 2016 Rocket 4.0 16:43:56 10° NNW 16:50:15 83° W 16:56:33 10° S
Unknown 4.2 16:46:54 10° W 16:50:48 47° SSW 16:50:48 47° SSW
CZ-4 R/B 4.3 16:48:49 10° SW 16:51:47 18° W 16:54:46 10° NW
Cosmos 2278 Rocket 2.8 16:46:44 10° SW 16:52:19 56° NW 16:57:56 10° NNE
Unknown 4.2 16:48:35 10° W 16:52:25 46° SSW 16:52:25 46° SSW
Cosmos-2242 4.0 16:54:54 35° NNE 16:54:54 35° NNE 16:57:29 10° NNE
Cosmos 1125 Rocket 3.8 16:48:38 10° NNW 16:53:42 48° NE 16:53:42 48° NE
Unknown 4.3 16:50:13 10° W 16:54:00 45° SSW 16:54:00 45° SSW
Unknown 4.3 16:51:52 10° W 16:55:34 45° SSW 16:55:34 45° SSW
Cosmos 2297 3.6 16:51:25 10° SSW 16:57:07 74° ESE 16:59:31 36° NE
ATLAS CENTAUR R/B 1.7 16:52:37 10° NW 16:56:54 61° NNE 16:56:54 61° NNE
Unknown 4.4 16:53:30 10° W 16:57:09 44° SSW 16:57:09 44° SSW
SL-08 R/B 4.4 16:52:54 10° NNW 16:59:04 83° W 17:02:59 24° S
NOSS 3-2 (A) 3.4 16:54:10 10° SW 17:00:09 81° SE 17:02:49 39° ENE
Unknown 4.5 16:56:50 10° W 17:00:22 42° SW 17:00:22 42° SW
SJ 16-02 2.3 16:58:26 10° NW 17:02:40 46° WSW 17:04:01 34° SSW
Cosmos 1818 4.2 16:59:04 10° NW 17:04:15 41° NNE 17:04:42 40° NE
SJ-6B 3.6 17:06:29 45° NW 17:06:29 45° NW 17:09:13 10° NNW
ARGOS 3.0 17:05:01 63° SSE 17:05:57 85° ENE 17:11:26 10° NNW
Ariane Rocket 4.4 17:02:03 10° SSW 17:06:47 38° W 17:11:34 10° NNW
Cosmos 2263 Rocket 4.4 17:05:25 10° NW 17:09:04 17° N 17:12:02 12° NNE
Cosmos 1825 3.9 17:06:59 10° N 17:08:41 25° N 17:08:41 25° N
Cosmos 468 Rocket 3.9 17:06:49 10° SSW 17:11:55 82° SSE 17:11:55 82° SSE
ADEOS Rocket 3.4 17:04:35 10° NNE 17:12:17 63° E 17:16:41 26° S
Cosmos 2150 Rocket 4.0 17:11:19 10° NNW 17:16:47 80° WSW 17:17:13 73° SSW
Cosmos 1892 4.1 17:13:28 10° NNW 17:16:59 36° W 17:17:11 35° W
SL-08 RB Rocket 4.5 17:25:57 46° NNW 17:25:57 46° NNW 17:29:10 10° NNW
Timation 2 Rocket 3.9 17:19:15 10° NW 17:25:02 63° NE 17:25:02 63° NE
NOSS 3-2 (C) 3.3 17:20:33 10° SW 17:26:34 81° SE 17:27:00 76° E
Cosmos 1833 4.1 17:25:21 10° NW 17:30:43 81° NNW 17:30:43 81° NNW
CZ-2C R/B 3.2 17:32:07 86° SW 17:32:11 86° WSW 17:37:57 10° NNW
Meteor 2-3 Rocket 3.7 17:27:46 10° NNW 17:33:27 85° NW 17:33:27 85° NW
Cosmos 1238 Rocket 3.9 17:27:50 10° NNW 17:34:33 87° W 17:35:06 76° S
Cosmos 2227 Rocket 3.6 17:43:00 10° NNW 17:47:02 28° NNE 17:47:02 28° NNE
Resurs 01 Rocket 3.3 17:52:12 31° NNW 17:52:12 31° NNW 17:54:34 10° NNW
ATLAS 3B R/B 2.9 17:45:07 10° SW 17:50:13 55° SW 17:50:13 55° SW
Cosmos 2297 Rocket 3.6 17:47:37 10° NNW 17:51:31 29° NNE 17:51:31 29° NNE
CENTAUR R/B 2.9 17:52:11 10° SW 17:56:59 57° SW 17:56:59 57° SW
Cosmos 1464 Rocket 4.4 17:52:55 10° N 17:57:48 54° N 17:57:48 54° N
H-2A R/B 3.5 18:11:49 32° WSW 18:12:31 33° W 18:17:25 10° NNW
Terra 4.3 18:19:09 16° N 18:19:09 16° N 18:20:08 10° N
ATLAS 5 CENTAUR R/B 3.5 18:17:17 10° NW 18:20:26 32° NNW 18:20:26 32° NNW
USA 238 DEB 4.2 18:22:22 10° W 18:29:04 54° NNW 18:29:24 54° N
USA 238 4.2 18:22:28 10° W 18:29:10 54° NNW 18:29:27 54° N
ATLAS CENTAUR R/B 4.3 18:32:00 10° WNW 18:33:06 16° WNW 18:33:06 16° WNW
Cosmos 2278 Rocket 4.3 18:33:13 10° WNW 18:37:39 23° NNW 18:40:03 18° N
NOSS 3-2 (A) 4.5 18:45:24 10° W 18:50:14 45° NW 18:50:14 45° NW
Cosmos 2263 Rocket 4.3 18:50:54 10° NNW 18:53:43 19° N 18:53:43 19° N
ADEOS Rocket 4.4 18:50:19 10° N 18:57:30 43° WNW 19:03:33 13° WSW
Cosmos 2227 Rocket 4.4 19:27:03 10° NW 19:28:51 21° NNW 19:28:51 21° NNW
Cosmos 2297 Rocket 4.5 19:31:40 10° NW 19:33:19 20° NW 19:33:19 20° NW
SL-16 R/B 4.5 22:44:10 20° NE 22:44:10 20° NE 22:45:48 10° NE
Cosmos 2322 Rocket 4.2 23:11:14 25° NE 23:11:14 25° NE 23:13:26 10° NE
Cosmos 2360 Rocket 4.0 23:17:54 26° NE 23:17:54 26° NE 23:20:27 10° NE
Cosmos 1980 Rocket 4.1 23:23:42 24° NNE 23:23:42 24° NNE 23:26:15 10° NNE
Cosmos 1943 Rocket 4.4 23:19:30 18° N 23:21:00 20° NNE 23:25:08 10° ENE
ATLAS 3B R/B 4.5 23:31:30 19° ESE 23:31:30 19° ESE 23:33:18 10° ESE
CZ-2D R/B 4.1 23:21:47 10° NNE 23:23:43 23° NNE 23:23:43 23° NNE
USA 234 4.4 23:21:15 10° E 23:24:39 34° E 23:24:39 34° E
COSMOS 2455 4.3 23:31:07 33° ENE 23:31:07 33° ENE 23:34:43 10° NE
CENTAUR R/B 3.8 23:36:38 44° ESE 23:36:38 44° ESE 23:42:10 10° SE
NOSS 3-1 (C) 4.4 23:35:59 46° NNE 23:35:59 46° NNE 23:41:40 10° ENE
Cosmos 2344 4.4 23:35:55 40° NW 23:39:24 62° NNE 23:50:44 10° ESE
ARIANE 5 R/B 4.1 23:49:37 10° NNE 23:52:23 30° NE 23:52:23 30° NE
